Probability
3 2 0 0 0 0 0 0 0 0 0 0 0 0 1 1 1 1 2 3 3 3 2 1 0 0 0 0 1 2 2 1 2 3 2 3 3 1 0 0 0 0 0 0 0 0 0 0 0
3 2 1 0 0 0 0 0 0 0 0 0 0 1 2 2 2 2 3 3 3 2 1 0 0 0 0 0 0 1 1 1 2 3 3 3 3 2 1 1 0 0 0 0 0 0 0 0 0
5 3 1 1 1 1 0 0 1 1 0 0 0 1 2 2 2 3 3 3 2 1 0 0 0 0 0 0 0 0 1 1 1 2 3 3 3 3 3 2 1 0 0 1 1 0 0 0 0
4 3 1 1 2 2 1 0 1 1 0 0 0 0 1 1 1 3 3 2 1 0 0 0 0 0 0 0 1 1 2 2 1 1 1 2 3 3 3 2 1 1 1 2 2 1 1 1 1
3 2 0 1 1 1 1 0 1 1 0 0 0 0 0 0 1 2 2 1 0 0 0 0 0 0 0 1 2 3 3 3 3 2 1 2 3 2 1 1 1 1 2 3 3 2 2 2 2
3 2 0 0 0 0 0 0 0 0 0 1 1 1 0 1 1 1 1 0 0 0 0 0 0 0 0 2 3 3 3 3 3 2 1 1 2 1 0 0 0 1 1 2 2 2 3 3 2
6 3 1 0 0 0 0 0 0 0 0 1 1 1 0 1 1 1 0 0 0 0 0 0 0 0 0 1 2 3 3 3 3 3 2 1 1 0 0 0 0 0 0 0 0 2 4 4 3
8 4 1 0 0 0 0 0 0 0 0 0 0 0 1 2 3 3 2 0 0 0 0 0 0 0 0 0 1 2 2 2 2 2 2 2 1 0 0 0 0 0 0 1 1 2 4 4 3
9 5 1 0 0 0 0 0 0 0 0 0 0 0 2 5 6 5 4 2 1 0 0 0 0 0 0 0 0 1 1 1 1 1 1 2 1 0 0 0 0 0 0 1 2 4 4 3 2
9 6 1 0 0 0 0 0 0 0 0 0 0 2 5 7 7 6 5 4 2 0 0 0 0 0 0 0 0 0 0 0 0 0 1 1 1 0 0 0 0 0 0 1 2 3 3 1 1
7 5 1 0 0 0 0 0 0 0 0 0 1 3 6 7 6 4 5 4 2 0 0 0 0 0 0 0 0 0 0 0 0 1 1 1 0 0 0 0 0 0 0 0 1 1 1 0 0
3 2 0 0 0 0 0 0 0 0 0 0 2 5 6 5 4 3 4 4 1 0 0 0 0 0 0 0 0 0 0 0 1 2 2 1 0 0 0 0 0 0 0 0 0 0 0 0 0
0 0 0 0 0 0 0 0 0 0 0 1 2 3 3 3 2 1 2 3 1 0 0 0 0 0 0 0 0 0 0 0 1 1 1 0 0 0 0 0 0 0 0 0 0 0 0 0 0
0 1 1 1 0 0 0 0 0 1 1 1 1 1 1 2 2 1 1 1 1 0 0 0 0 0 0 0 1 1 1 0 0 0 0 0 0 0 0 0 0 0 0 0 0 0 0 0 0
0 1 1 1 0 0 0 0 0 1 1 1 0 0 1 2 3 1 0 0 0 0 1 0 0 0 0 1 2 2 2 1 0 0 0 0 0 0 0 0 0 0 0 0 0 0 0 0 0
0 0 0 0 0 0 0 0 0 0 0 0 1 1 3 3 2 0 0 0 0 0 0 0 0 0 1 1 3 3 3 2 1 0 0 0 0 0 0 0 0 0 0 0 0 0 0 0 0
0 0 0 0 0 0 0 0 0 0 0 1 2 4 4 3 1 0 0 0 0 0 0 0 0 1 2 3 3 3 3 2 1 0 0 0 0 0 0 0 0 0 0 0 0 0 0 0 0
0 0 0 0 0 0 0 0 0 1 2 2 4 5 5 3 1 0 0 0 0 0 0 0 1 2 3 3 3 3 3 2 1 0 0 0 0 0 0 0 0 0 0 0 0 0 0 0 0
0 0 0 0 0 0 0 0 0 1 3 4 4 6 6 4 3 2 1 0 0 0 0 1 2 3 3 3 3 3 2 1 0 0 0 0 0 0 0 0 0 0 0 0 0 0 0 0 0
0 0 0 0 0 0 0 0 0 1 2 4 5 6 6 5 4 3 2 1 1 1 1 1 3 3 3 3 3 2 1 0 0 0 0 0 0 0 0 0 0 0 0 0 0 0 0 0 0
0 0 0 0 0 0 0 0 0 0 1 3 4 6 5 4 3 2 2 2 3 3 2 3 3 3 3 3 2 1 0 0 0 0 0 0 0 0 0 0 0 0 0 0 0 0 0 0 0
0 0 0 0 0 0 0 0 0 0 0 1 2 3 3 2 2 3 3 4 5 5 4 3 3 3 4 3 1 0 0 0 0 0 0 0 0 0 0 0 0 0 0 0 0 0 0 0 0
0 0 0 0 0 0 0 0 0 0 0 0 0 1 1 1 2 3 3 4 5 5 5 4 2 2 4 4 2 0 0 0 0 0 0 0 0 0 0 0 0 0 0 0 0 0 0 0 0
0 0 0 0 0 0 0 0 1 2 1 0 0 1 2 1 1 2 4 5 6 6 6 5 3 3 4 4 2 1 0 0 1 0 0 0 0 0 0 0 0 0 0 0 0 0 0 0 0
0 0 0 0 0 0 0 1 2 2 2 1 1 2 3 2 2 3 5 8 8 8 9 8 5 3 3 3 2 1 0 0 0 0 0 0 0 0 0 0 0 0 0 0 0 0 0 0 0
0 0 0 0 0 0 1 2 2 2 2 3 3 3 4 4 3 4 6 9 11 11 12 12 9 6 3 1 1 1 1 1 0 0 0 0 0 0 0 0 0 0 0 0 0 0 0 0 0
0 0 0 0 0 0 1 2 2 2 3 3 3 4 4 5 5 5 6 7 10 12 14 14 13 9 5 2 2 2 2 2 1 0 0 0 0 0 0 0 0 0 0 0 0 0 0 0 0
0 0 0 0 0 0 1 2 2 2 3 4 4 3 4 5 5 5 5 5 7 11 15 14 13 11 8 6 6 6 5 3 2 1 1 1 0 0 0 0 0 0 0 0 0 0 0 0 0
0 0 0 0 0 0 0 1 1 2 3 4 4 3 3 5 5 5 5 5 7 11 14 14 12 11 12 12 11 10 8 6 4 3 3 3 2 0 0 0 0 0 0 0 0 0 0 0 1
0 0 0 0 0 0 0 0 1 2 3 4 4 4 4 4 5 7 7 6 8 11 14 15 13 13 14 15 14 12 10 9 7 6 5 5 3 1 0 0 0 0 0 0 0 0 0 1 1
Wind_Speed
8 6 2 1 2 3 2 2 0 2 2 3 4 5 5 4 1 2 1 5 6 5 4 7 9 10 10 10 10 10 10 10 10 10 10 10 11 10 10 10 10 10 10 10 10 9 9 9 9
5 4 1 1 4 3 3 2 2 2 4 4 5 5 5 4 3 5 3 4 6 6 4 5 9 9 10 10 10 10 10 10 10 10 10 10 10 10 10 10 10 10 10 10 9 9 8 8 8
6 3 1 3 2 1 1 1 2 4 4 3 4 4 4 3 3 3 3 7 6 5 3 5 9 9 9 9 9 9 9 9 9 9 9 9 9 9 9 8 9 9 9 9 9 8 8 8 8
2 1 2 3 1 1 2 1 3 3 4 5 4 5 4 3 3 4 7 8 7 4 3 4 9 8 8 8 7 8 8 8 8 9 9 9 8 8 8 8 8 8 8 8 8 8 8 7 7
1 2 3 3 2 1 0 1 2 3 3 4 4 5 3 3 7 9 8 7 6 4 3 3 8 8 7 7 7 7 7 7 7 8 8 8 7 7 7 7 7 7 7 7 7 7 7 7 6
2 3 4 2 2 2 1 2 3 5 4 4 4 4 3 3 7 8 7 6 5 4 3 3 7 7 7 6 6 6 7 7 6 6 7 7 6 6 6 5 6 6 6 6 6 6 7 6 6
2 3 1 0 1 1 1 1 3 4 4 3 3 4 2 3 5 7 6 5 4 3 3 2 2 3 5 5 5 5 6 6 5 5 5 6 6 5 5 5 5 5 5 5 5 5 6 5 5
2 3 2 1 1 0 1 2 3 4 3 4 4 6 5 5 7 7 6 5 4 3 2 2 2 2 2 2 4 5 5 5 5 5 5 5 6 5 5 4 4 4 4 5 4 5 5 5 5
2 3 1 2 2 1 2 2 2 3 5 2 3 4 5 11 11 9 6 4 3 3 2 2 1 1 2 1 2 3 4 5 4 3 4 4 3 2 2 3 3 3 3 4 4 4 4 4 4
2 2 4 3 3 4 3 3 4 4 3 3 5 7 11 11 11 9 7 6 5 3 2 1 1 1 1 1 2 2 2 3 3 2 3 3 2 1 2 2 3 3 3 4 4 4 4 4 2
3 4 3 1 2 4 3 3 3 7 3 5 8 12 12 11 9 8 7 6 5 4 3 3 2 1 1 1 1 1 2 2 2 3 3 3 2 1 2 1 2 2 2 2 3 3 2 2 2
3 4 2 1 2 3 4 4 3 4 4 6 10 13 12 11 10 9 8 6 5 4 4 3 3 2 1 1 1 1 1 1 2 2 3 2 2 2 1 1 1 1 1 1 1 1 2 2 2
2 2 1 1 2 3 4 3 4 1 4 9 11 11 11 10 8 7 6 5 5 5 4 4 3 3 2 1 1 1 1 2 2 2 2 2 2 1 1 1 1 1 1 1 1 1 1 2 2
1 0 1 1 2 2 4 2 3 2 7 10 11 10 10 10 9 7 6 6 6 6 5 4 4 3 3 2 1 1 1 2 2 2 2 2 2 1 1 1 1 1 1 1 1 1 1 1 1
1 3 3 1 2 2 5 2 2 5 9 9 9 9 9 8 8 9 8 8 7 6 5 5 5 4 3 3 2 1 1 2 1 1 1 2 2 2 2 1 1 1 1 1 2 2 2 1 1
3 4 2 2 1 2 4 3 3 7 10 9 9 9 9 8 8 8 8 7 7 6 6 5 5 5 4 3 2 1 1 1 1 1 1 2 2 2 2 1 1 1 1 2 2 2 2 1 1
4 1 2 3 2 2 2 4 3 7 9 9 8 8 8 7 7 7 8 8 8 7 7 6 4 5 4 4 3 2 1 1 1 1 2 2 2 2 2 2 1 1 2 1 1 2 2 1 1
2 2 2 4 2 2 2 4 3 7 10 10 9 8 8 9 10 8 8 8 8 7 6 6 5 5 4 3 2 2 1 1 1 1 1 2 2 3 3 2 1 2 2 2 2 2 2 1 1
3 2 3 4 2 3 4 4 5 7 8 9 8 8 9 9 7 6 7 7 6 6 6 6 5 5 4 3 2 2 1 1 1 1 1 2 2 3 2 2 2 2 2 2 2 2 2 1 1
2 2 3 3 1 2 2 4 3 6 9 9 10 10 10 8 6 6 6 7 7 7 7 6 6 5 5 4 3 2 2 1 1 1 1 2 2 2 2 3 2 2 2 2 2 2 1 1 1
3 4 4 3 1 3 1 4 3 3 4 5 7 8 9 11 10 9 9 8 8 8 8 8 7 6 5 5 3 3 2 2 1 1 1 1 2 2 2 3 3 2 2 1 1 2 2 2 1
4 4 3 2 2 2 1 3 6 3 4 6 7 8 10 10 10 9 10 9 10 10 8 7 7 6 5 6 6 6 4 3 3 2 1 1 2 2 2 3 3 2 2 2 1 2 2 2 1
4 1 3 2 3 1 2 1 8 1 4 8 8 9 10 10 10 11 11 11 10 9 8 7 7 6 6 6 7 6 4 3 2 2 2 1 1 1 2 2 2 2 2 2 1 1 2 1 2
3 5 5 5 5 1 3 2 7 4 6 6 7 8 8 9 10 10 9 8 7 7 7 7 7 7 6 7 6 6 6 5 4 3 3 2 1 1 2 2 2 2 2 2 2 2 2 2 2
4 6 4 4 4 5 2 2 9 6 6 7 6 8 8 8 9 9 10 10 9 9 9 8 8 7 6 7 7 7 7 6 6 5 4 3 2 1 2 2 2 2 2 2 2 2 2 2 2
3 7 7 5 5 5 2 5 8 5 4 4 4 4 6 7 8 10 10 11 11 11 10 9 9 7 7 7 7 6 6 5 4 5 4 4 3 3 3 3 3 2 2 2 2 1 1 2 2
4 3 5 6 2 1 5 6 8 3 3 2 2 3 5 7 8 9 10 10 10 11 11 11 10 8 8 8 6 6 6 6 5 4 4 3 3 3 3 4 3 3 3 3 3 2 1 2 2
4 7 5 5 4 3 5 5 6 5 5 3 3 5 5 6 7 8 8 9 10 10 10 10 10 9 8 8 7 6 6 6 5 5 4 4 3 3 3 3 3 3 3 3 3 2 1 2 1
3 4 5 4 5 6 4 8 7 8 7 6 7 6 6 6 6 7 7 7 7 7 7 8 8 8 7 7 6 6 6 6 5 5 5 5 4 4 4 4 4 3 3 3 3 3 3 2 1
4 6 7 5 4 4 4 9 5 5 5 5 6 6 5 5 5 6 6 5 6 7 8 8 8 8 8 7 6 6 5 6 6 6 5 5 5 5 5 4 4 4 3 3 3 3 3 3 3
Wind_Direction
151 142 145 141 50 44 355 322 82 66 57 58 76 81 90 77 103 133 103 125 125 128 133 138 133 130 126 124 123 121 120 121 120 122 125 127 127 126 126 128 128 129 130 131 130 129 128 127 126
147 158 180 66 68 43 333 330 54 74 131 127 79 70 70 60 62 102 116 129 127 128 125 135 136 134 131 127 125 123 123 123 124 124 125 128 129 130 131 131 133 134 136 135 133 132 131 131 128
167 190 96 62 71 145 259 343 90 85 102 97 78 62 71 86 110 126 134 130 117 116 118 141 140 137 134 131 129 128 126 127 128 128 127 127 127 128 130 133 137 140 141 139 137 136 134 132 132
165 114 53 61 38 248 198 175 120 103 62 53 89 71 63 77 131 131 127 126 117 113 120 147 143 141 139 137 136 132 133 133 132 132 131 128 128 131 131 134 138 143 145 143 140 138 136 133 132
89 76 51 29 338 333 57 134 113 83 56 56 79 83 52 40 101 118 126 128 126 125 128 145 144 144 144 142 143 143 142 140 137 133 132 134 136 133 132 138 140 142 143 141 141 140 137 134 133
47 59 60 7 354 13 45 75 84 79 84 79 76 84 60 98 114 126 127 124 126 126 126 132 144 145 146 149 149 148 145 142 141 138 138 139 137 136 136 141 142 142 143 143 142 142 139 137 136
88 72 71 337 2 20 93 85 104 109 104 111 108 94 101 135 131 124 118 111 106 105 101 93 117 136 144 148 148 148 148 148 146 144 143 141 137 137 138 138 137 135 138 144 147 148 144 140 138
141 93 29 356 88 29 102 78 104 113 108 121 116 133 167 166 135 117 106 101 100 97 93 83 69 68 75 111 137 139 145 146 147 147 151 151 142 132 131 128 130 130 133 137 145 150 145 141 133
136 67 346 235 173 176 140 116 107 90 113 114 103 139 149 134 132 122 115 108 119 131 103 96 83 66 64 77 123 120 129 129 125 125 128 115 90 90 113 130 133 128 128 134 127 128 129 125 119
114 121 235 227 181 157 158 145 145 113 105 91 82 94 118 130 138 143 149 156 162 168 165 150 140 101 68 86 65 48 64 74 74 73 86 85 81 87 103 114 117 112 100 103 101 94 96 93 94
167 201 246 244 158 140 136 137 125 132 164 177 153 142 139 142 148 157 165 169 176 175 175 173 170 145 102 72 66 57 66 72 74 82 91 89 79 69 59 53 62 67 72 65 70 67 68 79 94
193 247 216 195 147 139 146 143 130 166 198 161 149 147 147 154 163 172 176 178 169 172 186 183 170 154 135 107 96 89 91 91 88 95 99 96 87 71 66 63 58 59 62 74 74 84 74 80 94
211 278 249 146 127 134 123 125 138 157 123 127 135 147 156 164 171 175 176 175 170 179 187 185 171 166 155 138 143 113 104 103 101 97 95 108 114 105 98 85 81 77 78 93 92 86 84 86 86
251 4 352 29 83 106 112 87 104 158 132 135 147 161 169 173 173 171 174 177 181 184 186 180 175 169 155 157 147 124 116 109 107 114 134 137 133 129 117 96 80 62 74 106 113 117 103 93 97
63 49 12 19 73 109 101 55 212 161 143 152 165 172 178 182 179 184 184 183 186 184 178 178 179 163 164 170 170 142 129 124 122 134 148 150 146 139 131 111 84 65 75 92 98 88 87 100 106
43 52 353 288 117 130 113 239 242 156 155 170 181 182 186 193 193 192 183 181 181 174 173 183 181 164 169 165 157 131 126 133 134 133 134 144 146 143 132 123 112 90 90 98 107 94 84 78 82
29 13 287 294 185 140 143 239 227 168 168 183 192 192 190 196 204 198 186 182 181 178 175 178 173 164 166 157 139 122 114 119 124 120 125 137 133 133 127 126 124 107 98 94 112 101 111 108 89
246 258 269 267 238 151 201 248 220 180 184 192 197 198 196 202 210 198 188 182 178 178 176 175 170 163 153 134 115 99 90 82 89 115 136 137 130 127 122 119 113 109 104 87 92 104 95 104 105
195 212 258 262 220 158 214 241 234 191 193 202 202 203 207 211 208 190 184 176 169 171 174 176 174 168 151 141 147 145 158 143 110 131 137 140 135 127 124 125 112 111 116 116 112 109 96 74 79
204 236 270 297 318 149 220 257 246 196 204 206 206 205 206 203 189 185 179 175 176 178 179 177 182 175 171 168 160 151 140 145 148 127 107 130 137 138 143 135 128 123 114 96 93 104 113 93 85
250 207 222 234 352 44 72 315 267 229 217 224 219 209 203 199 193 187 186 187 179 184 185 185 184 178 175 161 134 115 90 78 86 108 127 142 147 150 146 145 142 134 133 143 153 147 141 142 96
264 239 198 181 94 318 81 284 287 250 229 228 228 215 207 203 192 186 187 191 191 193 187 181 179 176 174 162 159 159 162 170 186 176 166 143 139 147 146 143 142 139 141 152 176 148 152 146 158
225 134 109 111 121 36 14 180 288 314 250 243 231 223 213 203 193 188 192 193 193 189 185 180 177 179 176 173 173 169 167 167 151 144 142 141 133 140 143 146 148 148 146 152 135 117 132 140 156
152 70 58 49 69 346 253 174 278 245 230 242 228 222 213 196 190 188 187 182 184 182 183 179 179 185 181 178 179 178 173 165 157 160 168 172 159 147 153 152 156 156 154 163 161 146 137 138 141
92 88 36 3 10 253 258 196 250 251 232 226 224 221 212 194 186 183 181 182 184 184 187 183 183 188 186 182 187 189 182 175 177 177 182 178 175 186 194 172 167 165 179 173 157 147 154 159 153
174 141 158 197 220 268 294 233 252 255 250 243 237 218 200 188 184 186 188 189 190 189 188 185 186 188 186 188 193 189 182 179 184 181 178 184 190 194 185 174 173 173 168 164 154 154 178 157 166
148 170 161 137 162 247 273 279 296 273 269 255 237 210 206 197 190 189 185 187 189 189 191 189 188 189 190 189 183 183 183 181 183 180 178 180 184 181 171 169 168 167 162 161 153 156 166 148 163
141 146 106 121 156 234 275 265 251 259 254 252 224 216 219 202 189 187 186 189 189 189 188 187 190 194 191 185 186 189 182 180 177 171 178 181 180 166 160 168 170 166 165 164 156 156 155 142 171
116 112 115 123 158 166 233 263 228 224 223 217 221 215 210 200 191 189 190 191 183 177 182 186 188 187 182 181 181 182 180 179 174 178 188 186 179 170 172 177 175 175 177 173 165 171 161 166 192
168 166 145 154 214 184 187 259 262 231 230 222 222 214 207 195 187 188 184 174 175 179 182 185 186 184 183 179 178 186 181 178 183 190 194 187 184 181 179 176 175 185 186 182 178 185 180 182 194